Date_and_time,latitude,longitude,wind_speed,RelWindDirFrom,WindDirFrom,air_pressure,air_temperature,relative_humidity,Temp,platform_speed_wrt_ground,air_pressure_at_mean_sea_level,platform_orientation
2018-09-08 23:50,50.6304383333333,-96.9807733333333,16.4,20.2,121,987.90,17.4,89,16.50,0.0,1014.11,138.7
2018-09-09 00:00,50.6304383333333,-96.98077,15.0,18.2,123,987.94,17.5,89,16.50,0.0,1014.14,90.0
2018-09-09 00:10,50.6304416666667,-96.9807716666667,16.7,20.7,126,987.77,17.7,86,16.50,0.0,1013.95,90.0
2018-09-09 00:20,50.6304416666667,-96.9807733333333,16.4,20.5,128,987.78,17.8,86,16.50,0.0,1013.95,90.0
2018-09-09 00:30,50.6304433333333,-96.98077,15.6,19.3,126,987.74,17.7,87,16.50,0.0,1013.90,90.0
2018-09-09 00:40,50.6304433333333,-96.98077,15.8,19.1,123,987.66,17.7,88,16.50,0.0,1013.81,90.0
2018-09-09 00:50,50.6304433333333,-96.98077,15.1,19.3,122,987.89,17.7,89,16.50,0.0,1014.05,90.0
2018-09-09 01:00,50.6304416666667,-96.9807683333333,14.6,18.4,117,987.85,17.7,89,16.50,0.0,1014.01,104.2
2018-09-09 01:10,50.6304416666667,-96.9807683333333,14.9,18.2,112,987.60,17.7,90,16.50,0.0,1013.76,104.2
2018-09-09 01:20,50.6304416666667,-96.9807683333333,15.0,18.2,121,987.45,17.6,91,16.51,0.0,1013.60,104.2
2018-09-09 01:30,50.6304416666667,-96.9807683333333,12.7,16.1,129,987.59,17.5,91,16.51,0.0,1013.75,104.2
2018-09-09 01:40,50.6304433333333,-96.9807666666667,11.6,14.1,121,987.62,17.6,91,16.51,0.0,1013.77,104.2
2018-09-09 01:50,50.6304433333333,-96.9807666666667,11.5,15.0,123,987.53,17.5,92,16.50,0.0,1013.69,104.2
2018-09-09 02:00,50.6304433333333,-96.9807716666667,14.7,18.9,126,987.10,17.6,89,16.51,0.0,1013.23,318.7
2018-09-09 02:10,50.6304416666667,-96.98077,14.3,17.5,130,986.91,17.5,90,16.52,0.0,1013.04,318.7
2018-09-09 02:20,50.6304433333333,-96.9807666666667,13.5,17.6,134,986.74,17.3,88,16.53,0.0,1012.87,318.7
2018-09-09 02:30,50.6304433333333,-96.980765,15.4,20.3,135,986.58,17.3,86,16.53,0.0,1012.71,318.7
2018-09-09 02:40,50.630445,-96.980765,16.1,21.9,136,986.38,17.5,81,16.52,0.0,1012.50,318.7
2018-09-09 02:50,50.630445,-96.980765,16.8,20.0,147,986.32,17.2,81,16.52,0.0,1012.45,318.7
2018-09-09 03:00,50.6304466666667,-96.9807633333333,16.1,18.4,149,986.14,17.1,84,16.51,0.0,1012.27,38.0
2018-09-09 03:10,50.6304483333333,-96.980765,14.8,18.4,152,986.15,17.0,84,16.51,0.0,1012.29,38.0
2018-09-09 03:20,50.6304483333333,-96.980765,12.5,17.4,154,986.27,17.0,83,16.50,0.0,1012.42,38.0
2018-09-09 03:30,50.6304483333333,-96.980765,13.2,16.7,151,986.10,16.9,84,16.49,0.0,1012.24,38.0
2018-09-09 03:40,50.6304483333333,-96.980765,13.5,16.6,152,985.97,16.8,84,16.48,0.0,1012.12,38.0
2018-09-09 03:50,50.6304483333333,-96.980765,11.7,15.3,160,986.13,16.8,84,16.48,0.0,1012.27,38.0
2018-09-09 04:00,50.630435,-96.9807583333333,12.4,16.1,157,986.11,16.7,85,16.49,0.0,1012.26,131.7
2018-09-09 04:10,50.6304366666667,-96.98076,15.4,19.3,146,985.85,16.8,83,16.48,0.0,1012.00,131.7
2018-09-09 04:20,50.63044,-96.9807616666667,16.5,19.8,142,985.73,17.0,81,16.47,0.0,1011.87,131.7
2018-09-09 04:30,50.6304416666667,-96.9807633333333,16.3,19.3,144,985.86,17.0,80,16.47,0.0,1011.99,131.7
2018-09-09 04:40,50.6304433333333,-96.980765,14.9,19.9,149,986.01,17.0,80,16.46,0.0,1012.16,131.7
2018-09-09 04:50,50.630445,-96.980765,11.9,16.4,157,986.09,16.8,83,16.46,0.0,1012.26,131.7
2018-09-09 05:00,50.630445,-96.9807666666667,11.8,15.0,160,985.94,16.6,86,16.45,0.0,1012.12,90.0
2018-09-09 05:10,50.6304416666667,-96.9807816666667,11.7,14.7,158,985.85,16.5,86,16.44,0.0,1012.03,90.0
2018-09-09 05:20,50.630445,-96.9807766666667,12.0,15.2,156,985.74,16.5,84,16.44,0.0,1011.92,90.0
2018-09-09 05:30,50.630445,-96.9807733333333,12.0,15.8,158,985.63,16.5,83,16.43,0.0,1011.81,90.0
2018-09-09 05:40,50.630445,-96.9807716666667,12.3,15.4,163,985.50,16.7,79,16.43,0.0,1011.67,90.0
2018-09-09 05:50,50.6304233333333,-96.9807583333333,14.8,19.4,169,985.34,17.3,66,16.43,0.0,1011.49,90.0
2018-09-09 06:00,50.630435,-96.9807733333333,18.5,23.8,169,985.02,18.1,58,16.43,0.0,1011.12,194.5
2018-09-09 06:10,50.6304533333333,-96.980765,20.4,27.0,171,984.80,18.5,55,16.42,0.0,1010.87,194.5
2018-09-09 06:20,50.6304483333333,-96.98077,22.1,29.6,172,984.63,18.6,53,16.41,0.0,1010.68,194.5
2018-09-09 06:30,50.630445,-96.9807666666667,22.8,30.7,173,984.49,18.7,52,16.40,0.0,1010.53,194.5
2018-09-09 06:40,50.630445,-96.980765,23.7,29.7,172,984.30,18.7,52,16.39,0.0,1010.35,194.5
2018-09-09 06:50,50.6304616666667,-96.98078,23.4,29.8,173,984.08,18.6,53,16.39,0.0,1010.15,194.5
2018-09-09 07:00,50.630435,-96.9807416666667,23.8,33.8,173,983.87,18.4,53,16.39,0.0,1009.94,90.0
2018-09-09 07:10,50.63045,-96.9807583333333,24.5,29.6,173,983.74,18.4,53,16.38,0.0,1009.80,90.0
2018-09-09 07:20,50.63045,-96.980765,24.8,32.7,172,983.57,18.3,53,16.38,0.0,1009.63,90.0
2018-09-09 07:30,50.63045,-96.980765,24.3,30.6,171,983.32,18.2,54,16.37,0.0,1009.38,90.0
2018-09-09 07:40,50.6304483333333,-96.9807666666667,24.0,31.1,173,983.30,18.1,54,16.37,0.0,1009.33,90.0
2018-09-09 07:50,50.6304483333333,-96.9807666666667,24.6,30.2,174,983.15,18.1,53,16.35,0.0,1009.13,90.0
2018-09-09 08:00,50.630455,-96.9807716666667,23.9,33.7,173,983.06,18.2,52,16.34,0.0,1009.03,345.5
2018-09-09 08:10,50.6304466666667,-96.9807633333333,23.8,31.5,174,982.84,18.1,53,16.33,0.0,1008.80,345.5
2018-09-09 08:20,50.63045,-96.980775,23.9,29.8,173,982.71,18.1,53,16.32,0.0,1008.65,345.5
2018-09-09 08:30,50.6304566666667,-96.980765,23.7,33.6,176,982.64,18.1,53,16.32,0.0,1008.59,345.5
2018-09-09 08:40,50.6304416666667,-96.980775,22.6,28.8,176,982.68,18.0,53,16.31,0.0,1008.64,345.5
2018-09-09 08:50,50.6304533333333,-96.9807716666667,22.9,30.5,173,982.45,17.9,53,16.30,0.0,1008.41,345.5
2018-09-09 09:00,50.6304516666667,-96.9807683333333,23.4,29.8,174,982.30,17.8,54,16.30,0.0,1008.27,360.0
2018-09-09 09:10,50.6304516666667,-96.9807733333333,23.1,30.3,173,982.23,17.7,54,16.28,0.0,1008.20,360.0
2018-09-09 09:20,50.6304516666667,-96.9807683333333,21.7,27.6,176,982.32,17.6,54,16.25,0.0,1008.31,360.0
2018-09-09 09:30,50.6304483333333,-96.980765,20.2,25.2,175,982.35,17.4,55,16.23,0.0,1008.35,360.0
2018-09-09 09:40,50.6304483333333,-96.9807633333333,19.3,24.3,178,982.40,17.4,55,16.23,0.0,1008.40,360.0
2018-09-09 09:50,50.6304483333333,-96.9807633333333,18.9,25.3,178,982.38,17.3,55,16.24,0.0,1008.37,360.0
2018-09-09 10:00,50.6304466666667,-96.9807633333333,19.3,28.8,178,982.35,17.3,55,16.24,0.0,1008.35,310.6
2018-09-09 10:10,50.6304466666667,-96.980765,19.8,24.8,180,982.34,17.3,56,16.22,0.0,1008.34,310.6
2018-09-09 10:20,50.630445,-96.9807633333333,19.2,25.8,182,982.38,17.2,56,16.20,0.0,1008.38,310.6
2018-09-09 10:30,50.630445,-96.980765,19.2,24.9,180,982.39,17.1,56,16.20,0.0,1008.40,310.6
2018-09-09 10:40,50.6304316666667,-96.9807616666667,18.6,23.3,181,982.37,17.0,57,16.20,0.0,1008.40,310.6
2018-09-09 10:50,50.6304416666667,-96.980765,18.5,24.5,181,982.34,16.9,57,16.18,0.0,1008.37,310.6
2018-09-09 11:00,50.6304416666667,-96.9807666666667,17.5,22.7,180,982.36,16.8,58,16.16,0.0,1008.40,165.5
2018-09-09 11:10,50.6304416666667,-96.9807666666667,18.6,23.5,179,982.24,16.8,57,16.15,0.0,1008.28,165.5
2018-09-09 11:20,50.6304433333333,-96.9807666666667,18.2,24.8,179,982.30,16.8,58,16.15,0.0,1008.35,165.5
2018-09-09 11:30,50.630445,-96.9807616666667,17.5,23.8,183,982.42,16.7,58,16.14,0.0,1008.48,165.5
2018-09-09 11:40,50.630445,-96.9807616666667,18.4,25.3,183,982.49,16.7,58,16.13,0.0,1008.56,165.5
2018-09-09 11:50,50.630445,-96.98076,16.7,24.8,188,982.65,16.5,59,16.11,0.0,1008.73,165.5
2018-09-09 12:00,50.630445,-96.9807633333333,19.1,26.9,183,982.56,16.4,59,16.09,0.0,1008.64,360.0
2018-09-09 12:10,50.6304466666667,-96.980765,19.2,27.3,182,982.46,16.2,60,16.08,0.0,1008.56,360.0
2018-09-09 12:20,50.6304483333333,-96.9807666666667,20.1,26.9,180,982.43,16.0,62,16.09,0.0,1008.54,360.0
2018-09-09 12:30,50.6304483333333,-96.9807666666667,20.8,27.2,178,982.55,15.8,64,16.09,0.0,1008.67,360.0
2018-09-09 12:40,50.63045,-96.9807666666667,20.3,27.7,178,982.50,15.5,65,16.08,0.0,1008.65,360.0
2018-09-09 12:50,50.63045,-96.9807666666667,19.8,26.0,177,982.43,15.3,67,16.08,0.0,1008.58,360.0
2018-09-09 13:00,50.6304516666667,-96.980765,19.7,27.2,177,982.36,15.2,67,16.06,0.0,1008.52,360.0
2018-09-09 13:10,50.6304516666667,-96.9807666666667,20.0,26.4,177,982.17,15.3,67,16.05,0.0,1008.32,360.0
2018-09-09 13:20,50.6304366666667,-96.98072,18.6,24.3,177,982.28,15.4,67,16.04,0.0,1008.43,360.0
2018-09-09 13:30,50.6304433333333,-96.9807816666667,18.3,23.3,178,982.34,15.4,67,16.03,0.0,1008.49,360.0
2018-09-09 13:40,50.6304433333333,-96.98078,18.0,24.3,177,982.33,15.5,67,16.02,0.0,1008.48,360.0
2018-09-09 13:50,50.630435,-96.9807683333333,18.5,24.0,173,982.30,15.4,68,16.02,0.0,1008.47,360.0
2018-09-09 14:00,50.6304316666667,-96.98076,19.1,23.9,175,982.31,15.4,68,15.99,0.0,1008.49,138.7
2018-09-09 14:10,50.6304483333333,-96.98077,19.8,24.7,172,982.16,15.4,69,16.01,0.0,1008.34,138.7
2018-09-09 14:20,50.6304483333333,-96.9807716666667,16.8,21.6,178,982.31,14.9,78,16.00,0.0,1008.52,138.7
2018-09-09 14:30,50.6304483333333,-96.9807683333333,18.9,23.5,172,982.22,14.8,76,15.98,0.0,1008.45,138.7
2018-09-09 14:40,50.6304483333333,-96.9807716666667,18.7,22.7,170,982.09,14.8,77,15.98,0.0,1008.33,138.7
2018-09-09 14:50,50.630445,-96.9807683333333,19.4,26.1,174,982.07,14.9,76,15.98,0.0,1008.31,138.7
2018-09-09 15:00,50.630445,-96.98077,15.9,20.8,176,982.27,14.8,78,15.98,0.0,1008.51,0.0
2018-09-09 15:10,50.6304416666667,-96.98077,17.2,21.0,178,982.14,14.7,78,15.98,0.0,1008.38,0.0
2018-09-09 15:20,50.6304316666667,-96.98076,15.6,20.3,179,982.06,14.9,77,15.98,0.0,1008.28,0.0
2018-09-09 15:30,50.6304316666667,-96.9807616666667,18.6,24.3,183,981.79,15.7,73,15.96,0.0,1007.97,0.0
2018-09-09 15:40,50.6304333333333,-96.9807516666667,20.3,25.0,181,981.52,16.1,71,15.94,0.0,1007.68,0.0
2018-09-09 15:50,50.6304366666667,-96.9807566666667,20.8,26.5,182,981.36,16.4,69,15.93,0.0,1007.50,0.0
2018-09-09 16:00,50.6304366666667,-96.9807566666667,21.0,27.2,184,981.36,16.7,69,15.94,0.0,1007.49,360.0
2018-09-09 16:10,50.6304366666667,-96.9807566666667,19.4,25.8,184,981.43,16.9,68,15.96,0.0,1007.57,360.0
2018-09-09 16:20,50.6304433333333,-96.980775,17.0,24.3,193,981.59,17.3,67,15.97,0.0,1007.72,360.0
2018-09-09 16:30,50.630445,-96.9807683333333,18.5,28.5,184,981.37,17.6,67,15.98,0.0,1007.48,360.0
2018-09-09 16:40,50.6304466666667,-96.9807683333333,19.5,25.3,187,981.26,18.0,65,16.00,0.0,1007.35,360.0
2018-09-09 16:50,50.630445,-96.9807683333333,19.0,24.0,189,981.26,18.2,65,16.03,0.0,1007.34,360.0
2018-09-09 17:00,50.630445,-96.9807683333333,18.0,27.3,190,981.15,18.5,64,16.06,0.0,1007.22,318.7
2018-09-09 17:10,50.630445,-96.98077,19.4,25.3,187,980.93,18.7,64,16.09,0.0,1006.98,318.7
2018-09-09 17:20,50.6304266666667,-96.9807716666667,20.5,26.3,183,980.72,18.9,64,16.12,0.0,1006.72,318.7
2018-09-09 17:30,50.6304433333333,-96.9807766666667,19.3,25.2,185,980.63,19.2,63,16.15,0.0,1006.60,318.7
2018-09-09 17:40,50.6304433333333,-96.980775,17.1,23.0,183,980.49,19.5,63,16.17,0.0,1006.43,318.7
2018-09-09 17:50,50.6304466666667,-96.980775,16.0,20.9,184,980.42,19.8,63,16.20,0.0,1006.33,318.7
2018-09-09 18:00,50.630445,-96.9807866666667,19.6,26.3,184,980.31,20.1,61,16.22,0.0,1006.18,270.0
2018-09-09 18:10,50.63045,-96.9807766666667,17.8,24.7,187,980.53,20.3,61,16.26,0.0,1006.39,270.0
2018-09-09 18:20,50.6304466666667,-96.980775,18.4,24.5,185,980.31,20.5,60,16.30,0.0,1006.13,270.0
2018-09-09 18:30,50.6304483333333,-96.9807716666667,18.7,24.5,184,980.16,20.8,60,16.33,0.0,1005.95,270.0
2018-09-09 18:40,50.630435,-96.9807733333333,18.8,24.1,183,980.17,21.0,59,16.36,0.0,1005.95,270.0
2018-09-09 18:50,50.6304333333333,-96.98078,16.4,21.6,185,980.37,21.1,60,16.40,0.0,1006.13,270.0
2018-09-09 19:00,50.6304333333333,-96.9807766666667,14.8,20.9,199,980.40,21.5,58,16.43,0.0,1006.13,240.8
2018-09-09 19:10,50.6304333333333,-96.9807666666667,15.6,20.3,193,980.27,21.7,58,16.47,0.0,1005.99,240.8
2018-09-09 19:20,50.6304366666667,-96.98077,15.9,23.2,187,980.03,21.8,58,16.50,0.0,1005.72,240.8
2018-09-09 19:30,50.630465,-96.9807566666667,17.4,24.3,191,980.03,22.1,57,16.55,0.0,1005.69,240.8
2018-09-09 19:40,50.6304583333333,-96.9807633333333,16.7,23.0,194,980.56,22.4,56,16.59,0.0,1006.21,240.8
2018-09-09 19:50,50.6304516666667,-96.980765,16.3,23.0,203,980.99,22.9,54,16.64,0.0,1006.61,240.8
2018-09-09 20:00,50.6304483333333,-96.9807666666667,14.1,19.7,208,980.99,23.3,53,16.70,0.0,1006.59,360.0
2018-09-09 20:10,50.6304466666667,-96.9807683333333,12.2,17.6,206,980.97,23.4,53,16.75,0.0,1006.56,360.0
2018-09-09 20:20,50.6304466666667,-96.9807683333333,11.6,16.8,198,980.80,23.3,54,16.79,0.0,1006.37,360.0
2018-09-09 20:30,50.630445,-96.9807683333333,9.8,15.6,202,980.65,23.3,54,16.83,0.0,1006.21,360.0
2018-09-09 20:40,50.6304616666667,-96.980795,10.6,15.7,185,980.50,23.2,55,16.88,0.0,1006.06,360.0
2018-09-09 20:50,50.630445,-96.98077,12.5,16.4,190,980.47,23.3,55,16.92,0.0,1006.00,360.0
2018-09-09 21:00,50.630445,-96.9807566666667,13.6,19.0,195,980.50,23.6,54,16.94,0.0,1006.01,90.0
2018-09-09 21:10,50.6304483333333,-96.98076,13.9,18.7,193,980.62,23.4,55,16.96,0.0,1006.14,90.0
2018-09-09 21:20,50.6304466666667,-96.9807583333333,13.0,21.2,193,980.74,23.2,56,16.97,0.0,1006.26,90.0
2018-09-09 21:30,50.6304466666667,-96.98076,12.1,16.9,195,980.77,23.1,56,16.99,0.0,1006.28,90.0
2018-09-09 21:40,50.6304466666667,-96.9807616666667,12.7,16.9,189,980.58,22.6,58,17.01,0.0,1006.08,90.0
2018-09-09 21:50,50.6304466666667,-96.9807616666667,8.4,12.3,196,980.53,22.2,62,17.02,0.0,1006.03,90.0
2018-09-09 22:00,50.63045,-96.9807616666667,9.6,12.4,189,980.21,21.8,66,17.03,0.0,1005.72,14.5
2018-09-09 22:10,50.6304183333333,-96.9807583333333,10.3,13.1,192,980.27,21.7,66,17.05,0.0,1005.79,14.5
2018-09-09 22:20,50.6304516666667,-96.9807666666667,6.4,10.4,173,979.74,21.5,67,17.07,0.0,1005.26,14.5
2018-09-09 22:30,50.6304316666667,-96.980755,9.5,11.8,148,979.67,20.9,72,17.08,0.0,1005.22,14.5
2018-09-09 22:40,50.63044,-96.9807533333333,12.1,14.4,151,979.62,19.9,80,17.10,0.0,1005.20,14.5
2018-09-09 22:50,50.6304433333333,-96.9807566666667,11.3,13.5,163,979.56,19.7,84,17.11,0.0,1005.14,14.5
2018-09-09 23:00,50.6304416666667,-96.9807583333333,12.6,15.2,167,979.61,19.7,82,17.11,0.0,1005.19,167.4
2018-09-09 23:10,50.630445,-96.98076,12.5,14.6,169,979.69,20.5,78,17.12,0.0,1005.25,167.4
2018-09-09 23:20,50.6304383333333,-96.9807566666667,12.4,15.6,173,979.75,21.1,72,17.14,0.0,1005.29,167.4
2018-09-09 23:30,50.63045,-96.9807666666667,11.7,15.2,176,979.92,21.0,70,17.15,0.0,1005.49,167.4
